This is the latest recevied weather packets stored in our database for station/object PY2UEP-1. If no packets are shown the sender has not sent any weather packets the latest 10 day(s).
| Time | Temp. | Humidity | Pressure | Rain* | Wind** | Luminosity | Snow |
|---|---|---|---|---|---|---|---|
| 1787741408 | 17.78° C | 90% | 1018.9 hPa | 3.81 mm | - | - | - |
| 1787741108 | 17.78° C | 89% | 1018.9 hPa | 3.81 mm | - | - | - |
| 1787740808 | 17.78° C | 90% | 1018.9 hPa | 3.81 mm | - | - | - |
| 1787740508 | 17.78° C | 92% | 1018.9 hPa | 3.81 mm | - | - | - |
| 1787740208 | 17.78° C | 93% | 1018.6 hPa | 3.81 mm | - | - | - |
| 1787739908 | 17.78° C | 92% | 1018.6 hPa | 3.81 mm | - | - | - |
| 1787739608 | 17.78° C | 92% | 1018.5 hPa | 3.81 mm | - | - | - |
| 1787739308 | 17.78° C | 91% | 1018.5 hPa | 3.81 mm | - | - | - |
| 1787739008 | 17.78° C | 90% | 1018.4 hPa | 3.81 mm | - | - | - |
| 1787738708 | 17.78° C | 89% | 1018.4 hPa | 3.81 mm | - | - | - |
| 1787738408 | 17.78° C | 89% | 1018.4 hPa | 3.81 mm | - | - | - |
| 1787738108 | 17.78° C | 89% | 1018.2 hPa | 3.81 mm | - | - | - |
| 1787737808 | 17.78° C | 89% | 1018.4 hPa | 3.81 mm | - | - | - |
| 1787737508 | 17.78° C | 89% | 1018.1 hPa | 3.81 mm | - | - | - |
| 1787737208 | 17.78° C | 90% | 1018.2 hPa | 3.81 mm | - | - | - |
| 1787736908 | 17.78° C | 89% | 1018.1 hPa | 3.81 mm | - | - | - |
| 1787736608 | 17.22° C | 91% | 1018 hPa | 3.81 mm | - | - | - |
| 1787736308 | 17.78° C | 91% | 1018 hPa | 3.81 mm | - | - | - |
| 1787736008 | 17.78° C | 89% | 1017.9 hPa | 3.81 mm | - | - | - |
| 1787735708 | 17.78° C | 88% | 1017.9 hPa | 3.81 mm | - | - | - |
| 1787735408 | 18.33° C | 86% | 1017.9 hPa | 3.81 mm | - | - | - |
| 1787735108 | 18.33° C | 83% | 1017.6 hPa | 3.81 mm | - | - | - |
| 1787734808 | 18.33° C | 82% | 1017.5 hPa | 3.81 mm | - | - | - |
| 1787734508 | 18.89° C | 80% | 1017.5 hPa | 3.81 mm | - | - | - |
| 1787734208 | 18.89° C | 79% | 1017.2 hPa | 3.81 mm | - | - | - |
* Rain since midnight (hover to see other rain measurements)
** Current wind speed in m/s (hover to see current wind gust speed)